• In Romania
  • List of Countries
  • For 7 days
  • Water Temperature
  • Satellite Maps
  • Weather Map
  • Weather Widgets
  • user-avatar
    Login

    Hourly Weather Berberati

    Today, 20 October, Friday

    Time Temperature Precipitation Wind Pressure Humidity
    00:00 +22°C° 0 mm 0 mps 713 mmHg 86%
    01:00 +21°C° 0 mm 0 mps 713 mmHg 88%
    02:00 +21°C° 0 mm 0 mps 713 mmHg 89%
    03:00 +21°C° 0 mm 0 mps 713 mmHg 90%
    04:00 +20°C° 0 mm 0 mps 713 mmHg 91%
    05:00 +21°C° 0 mm 0 mps 714 mmHg 89%
    06:00 +22°C° 0 mm 0 mps 714 mmHg 86%
    07:00 +23°C° 0 mm 0 mps 714 mmHg 83%
    08:00 +26°C° 0 mm 0 mps 715 mmHg 74%
    09:00 +29°C° 0 mm 0 mps 715 mmHg 64%
    10:00 +32°C° 0 mm 0 mps 715 mmHg 54%
    11:00 +34°C° 0 mm 1 mps 714 mmHg 50%
    12:00 +35°C° 0 mm 1 mps 714 mmHg 46%
    13:00 +36°C° 0 mm 1 mps 713 mmHg 41%
    14:00 +35°C° 0 mm 1 mps 713 mmHg 45%
    15:00 +34°C° 0 mm 1 mps 712 mmHg 48%
    16:00 +34°C° 0 mm 1 mps 712 mmHg 51%
    17:00 +30°C° 0 mm 0 mps 712 mmHg 56%
    18:00 +28°C° 0 mm 0 mps 712 mmHg 60%
    19:00 +26°C° 0 mm 0 mps 712 mmHg 65%
    20:00 +26°C° 0 mm 0 mps 713 mmHg 67%
    21:00 +25°C° 0 mm 0 mps 713 mmHg 70%
    22:00 +24°C° 0 mm 0 mps 714 mmHg 73%
    23:00 +24°C° 0 mm 0 mps 714 mmHg 76%

    Tomorrow, 21 October, Saturday

    Time Temperature Precipitation Wind Pressure Humidity
    00:00 +23°C° 0 mm 0 mps 713 mmHg 78%
    01:00 +22°C° 0 mm 0 mps 713 mmHg 81%
    02:00 +22°C° 0 mm 0 mps 713 mmHg 82%
    03:00 +22°C° 0 mm 0 mps 713 mmHg 84%
    04:00 +21°C° 0 mm 0 mps 712 mmHg 86%
    05:00 +22°C° 0 mm 0 mps 713 mmHg 84%
    06:00 +23°C° 0 mm 0 mps 713 mmHg 83%
    07:00 +23°C° 0 mm 0 mps 714 mmHg 82%
    08:00 +26°C° 0 mm 0 mps 714 mmHg 72%
    09:00 +29°C° 0 mm 0 mps 714 mmHg 63%
    10:00 +33°C° 0 mm 0 mps 715 mmHg 53%
    11:00 +32°C° 0.7 mm 0 mps 714 mmHg 54%
    12:00 +34°C° 0.7 mm 1 mps 713 mmHg 55%
    13:00 +33°C° 0.7 mm 1 mps 712 mmHg 56%
    14:00 +33°C° 0 mm 1 mps 712 mmHg 58%
    15:00 +32°C° 0 mm 1 mps 711 mmHg 59%
    16:00 +32°C° 0 mm 1 mps 711 mmHg 60%
    17:00 +30°C° 0 mm 1 mps 711 mmHg 66%
    18:00 +29°C° 0 mm 1 mps 712 mmHg 72%
    19:00 +27°C° 0 mm 1 mps 712 mmHg 77%
    20:00 +25°C° 0.1 mm 0 mps 713 mmHg 80%
    21:00 +24°C° 0.1 mm 0 mps 713 mmHg 83%
    22:00 +23°C° 0.1 mm 0 mps 714 mmHg 86%
    23:00 +23°C° 0.6 mm 0 mps 713 mmHg 89%

    Day after tomorrow, 22 October, Sunday

    Time Temperature Precipitation Wind Pressure Humidity
    00:00 +24°C° 0.6 mm 1 mps 713 mmHg 91%
    01:00 +24°C° 0.6 mm 1 mps 713 mmHg 94%
    02:00 +23°C° 0.1 mm 1 mps 713 mmHg 95%
    03:00 +23°C° 0.1 mm 1 mps 712 mmHg 96%
    04:00 +23°C° 0.1 mm 1 mps 712 mmHg 97%
    05:00 +23°C° 0.1 mm 1 mps 713 mmHg 95%
    06:00 +24°C° 0.1 mm 1 mps 713 mmHg 93%
    07:00 +24°C° 0.1 mm 1 mps 714 mmHg 92%
    08:00 +27°C° 0.1 mm 1 mps 714 mmHg 82%
    09:00 +29°C° 0.1 mm 1 mps 715 mmHg 72%
    10:00 +31°C° 0.1 mm 2 mps 715 mmHg 63%
    11:00 +33°C° 0.3 mm 1 mps 714 mmHg 57%
    12:00 +35°C° 0.3 mm 1 mps 713 mmHg 52%
    13:00 +34°C° 0.3 mm 0 mps 713 mmHg 47%
    14:00 +33°C° 0.5 mm 0 mps 712 mmHg 53%
    15:00 +33°C° 0.5 mm 1 mps 712 mmHg 59%
    16:00 +32°C° 0.5 mm 1 mps 711 mmHg 65%
    17:00 +30°C° 0.4 mm 1 mps 711 mmHg 71%
    18:00 +28°C° 0.4 mm 1 mps 712 mmHg 77%
    19:00 +26°C° 0.4 mm 1 mps 712 mmHg 83%
    20:00 +25°C° 1.2 mm 1 mps 713 mmHg 88%
    21:00 +25°C° 1.2 mm 1 mps 713 mmHg 92%
    22:00 +22°C° 1.2 mm 0 mps 713 mmHg 97%
    23:00 +22°C° 0.5 mm 0 mps 713 mmHg 97%

    23 October, Monday

    Time Temperature Precipitation Wind Pressure Humidity
    00:00 +24°C° 0.5 mm 1 mps 713 mmHg 97%
    01:00 +24°C° 0.5 mm 1 mps 712 mmHg 97%
    02:00 +23°C° 0.1 mm 1 mps 712 mmHg 97%
    03:00 +23°C° 0.1 mm 1 mps 712 mmHg 97%
    04:00 +23°C° 0.1 mm 1 mps 712 mmHg 97%
    05:00 +23°C° 0.7 mm 1 mps 713 mmHg 97%
    06:00 +24°C° 0.7 mm 1 mps 713 mmHg 96%
    07:00 +24°C° 0.7 mm 1 mps 714 mmHg 96%
    08:00 +26°C° 1.2 mm 1 mps 714 mmHg 90%
    09:00 +27°C° 1.2 mm 1 mps 714 mmHg 84%
    10:00 +28°C° 1.2 mm 2 mps 714 mmHg 78%
    11:00 +29°C° 0.1 mm 2 mps 714 mmHg 74%
    12:00 +30°C° 0.1 mm 2 mps 713 mmHg 70%
    13:00 +30°C° 0.1 mm 2 mps 712 mmHg 66%
    14:00 +30°C° 0.1 mm 1 mps 712 mmHg 68%
    15:00 +30°C° 0.1 mm 1 mps 712 mmHg 71%
    16:00 +29°C° 0.1 mm 1 mps 711 mmHg 73%
    17:00 +28°C° 0.5 mm 1 mps 712 mmHg 80%
    18:00 +26°C° 0.5 mm 1 mps 712 mmHg 87%
    19:00 +25°C° 0.5 mm 1 mps 713 mmHg 93%
    20:00 +24°C° 0 mm 1 mps 713 mmHg 94%
    21:00 +24°C° 0 mm 1 mps 712 mmHg 95%
    22:00 +24°C° 0 mm 1 mps 712 mmHg 96%
    23:00 +23°C° 0 mm 1 mps 712 mmHg 96%

    24 October, Tuesday

    Time Temperature Precipitation Wind Pressure Humidity
    00:00 +23°C° 0 mm 1 mps 712 mmHg 97%
    01:00 +21°C° 0 mm 0 mps 711 mmHg 98%
    02:00 +21°C° 0 mm 0 mps 712 mmHg 98%
    03:00 +20°C° 0 mm 0 mps 712 mmHg 98%
    04:00 +20°C° 0 mm 0 mps 712 mmHg 98%
    05:00 +21°C° 0 mm 0 mps 712 mmHg 97%
    06:00 +21°C° 0 mm 0 mps 713 mmHg 95%
    07:00 +22°C° 0 mm 0 mps 713 mmHg 94%
    08:00 +24°C° 0 mm 0 mps 714 mmHg 83%
    09:00 +27°C° 0 mm 0 mps 714 mmHg 72%
    10:00 +30°C° 0 mm 0 mps 714 mmHg 61%
    11:00 +29°C° 0.9 mm 0 mps 713 mmHg 66%
    12:00 +31°C° 0.9 mm 1 mps 713 mmHg 70%
    13:00 +30°C° 0.9 mm 1 mps 712 mmHg 75%
    14:00 +30°C° 1 mm 1 mps 711 mmHg 74%
    15:00 +28°C° 1 mm 0 mps 711 mmHg 73%
    16:00 +28°C° 1 mm 0 mps 711 mmHg 72%
    17:00 +26°C° 0.1 mm 0 mps 711 mmHg 77%
    18:00 +25°C° 0.1 mm 0 mps 712 mmHg 82%
    19:00 +23°C° 0.1 mm 0 mps 712 mmHg 87%
    20:00 +23°C° 0 mm 0 mps 712 mmHg 88%
    21:00 +22°C° 0 mm 0 mps 712 mmHg 90%
    22:00 +22°C° 0 mm 0 mps 712 mmHg 91%
    23:00 +22°C° 0 mm 0 mps 712 mmHg 92%

    25 October, Wednesday

    Time Temperature Precipitation Wind Pressure Humidity
    00:00 +21°C° 0 mm 0 mps 712 mmHg 93%
    01:00 +21°C° 0 mm 0 mps 712 mmHg 94%
    02:00 +21°C° 0.1 mm 0 mps 712 mmHg 94%
    03:00 +20°C° 0.1 mm 0 mps 712 mmHg 95%
    04:00 +20°C° 0.1 mm 0 mps 712 mmHg 95%
    05:00 +21°C° 0 mm 0 mps 712 mmHg 93%
    06:00 +22°C° 0 mm 0 mps 713 mmHg 90%
    07:00 +23°C° 0 mm 0 mps 713 mmHg 87%
    08:00 +25°C° 0 mm 0 mps 714 mmHg 77%
    09:00 +28°C° 0 mm 0 mps 714 mmHg 66%
    10:00 +31°C° 0 mm 0 mps 714 mmHg 56%
    11:00 +32°C° 0.1 mm 0 mps 713 mmHg 52%
    12:00 +33°C° 0.1 mm 0 mps 712 mmHg 48%
    13:00 +34°C° 0.1 mm 0 mps 712 mmHg 45%
    14:00 +34°C° 0.7 mm 1 mps 711 mmHg 52%
    15:00 +33°C° 0.7 mm 1 mps 711 mmHg 59%
    16:00 +31°C° 0.7 mm 1 mps 711 mmHg 66%
    17:00 +29°C° 0.1 mm 1 mps 711 mmHg 72%
    18:00 +28°C° 0.1 mm 1 mps 711 mmHg 77%
    19:00 +26°C° 0.1 mm 1 mps 712 mmHg 83%
    20:00 +26°C° 0.1 mm 1 mps 712 mmHg 84%
    21:00 +25°C° 0.1 mm 1 mps 712 mmHg 86%
    22:00 +25°C° 0.1 mm 1 mps 712 mmHg 87%
    23:00 +24°C° 0.8 mm 1 mps 712 mmHg 90%
    Show more